Location: ??????
(30.0081°N, 31.2109°E)
Time: 07:44:24
(UTC+00:00)

USA 234 - Pass Details

Date: 03 March 2021
Orbit: 1102 x 1105 km, 123.0° (Epoch: 14 April)

Event Time Altitude Azimuth Distance (km) Brightness Sun altitude
Rises 16:07:49 0° 45° (NE) 3,920 5.7 -3.4°
Reaches altitude 10° 16:10:21 10° 49° (NE) 2,960 5.0 -4.0°
Maximum altitude 16:16:48 61° 129° (SE) 1,234 3.4 -5.4°
Drops below altitude 10° 16:23:13 10° 208° (SSW) 2,951 6.0 -6.8°
Sets 16:25:44 0° 212° (SSW) 3,907 6.7 -7.3°
